Tracking 19242 objects as of 19-Sep-2018
HD Live streaming from Space Station
objects crossing your sky now

DIAMOND RED

Track DIAMOND RED now!
10-day predictions


NORAD ID: 42783
Int'l Code: 2017-036U
Perigee: 498.4 km
Apogee: 517.7 km
Inclination: 97.4 °
Period: 94.6 minutes
Semi major axis: 6879 km
RCS: Unknown
Launch date: June 23, 2017
Source: Australia (AUS)
Launch site: SRIHARIKOTA (SRI)
aabbcc
Your satellite tracking list
Your tracking list is empty




NASA's NSSDC Master Catalog

Two Line Element Set (TLE):
1 42783U 17036U   18262.11974650  .00000818  00000-0  39177-4 0  9991
2 42783  97.3918 320.2183 0014051 105.8735 254.4051 15.21641518 68797
Source of the keplerian elements: AFSPC